TJS-22

Last updated on Mon Sep 07 2026 00:03:03 GMT+0000 (Coordinated Universal Time)

1 66990U 25290A 26249.60499506 -.00000023 00000+0 00000+0 0 9994 2 66990 1.3375 288.0260 0004316 322.9590 18.9741 1.00271577 2834
UTC large
Height (km)
Speed (km/s)
/
Latitude / Longitude
Inclination (degrees)
Orbital Period (minutes)
Azimuth
Elevation
Range (km)
Doppler Factor

Next 0 passes for location: London (51.5072 / 0.1276)

No passes found over London.
TJS-22